User: anonymous   Login
Location: Isola Pescaroli
(45.0500°N, 10.1667°E)
Time: 19:43:35
(UTC+00:00)
Language:

Cosmos 1844 - Orbit

View from above orbital plane
View from above orbital plane
View from above satellite
View from above satellite

Ground track
Ground track

The orbit data is extracted from the following two-line orbital elements,

1 17973U 87041A   21335.58256210 -.00000322  00000-0 -14303-3 0  9993
2 17973  70.8978  81.4547 0032137 206.9292 153.0163 14.14129666783145
Epoch (UTC): 01 December 2021 13:58:53
Eccentricity: 0.0032137
inclination: 70.8978°
perigee height: 822 km
apogee height: 868 km
right ascension of ascending node: 81.4547°
argument of perigee: 206.9292°
revolutions per day: 14.14129666
mean anomaly at epoch: 153.0163°
orbit number at epoch: 78314

The dashed part of the orbit path shows where the satellite is in the earth's shadow,  

DLR